This is the latest recevied weather packets stored in our database for station/object KE4ODN. If no packets are shown the sender has not sent any weather packets the latest 10 day(s).
| Time | Temp. | Humidity | Pressure | Rain* | Wind** | Luminosity | Snow |
|---|---|---|---|---|---|---|---|
| 1777984324 | 12.22° C | 92% | 1013.8 hPa | 0 mm | - | 35 W/m² | - |
| 1777983844 | 11.67° C | 92% | 1013.6 hPa | 0 mm | - | 30 W/m² | - |
| 1777983364 | 11.11° C | 93% | 1013.5 hPa | 0 mm | - | 32 W/m² | - |
| 1777982905 | 10.56° C | 93% | 1013.6 hPa | 0 mm | - | 28 W/m² | - |
| 1777981684 | 10° C | 93% | 1013.2 hPa | 0 mm | - | 16 W/m² | - |
| 1777979524 | 10° C | 93% | 1013.1 hPa | 0 mm | - | 0 W/m² | - |
| 1777978084 | 10° C | 92% | 1013.1 hPa | 0 mm | - | 0 W/m² | - |
| 1777977604 | 10° C | 92% | 1013 hPa | 0 mm | - | 0 W/m² | - |
| 1777976665 | 10° C | 93% | 1012.8 hPa | 0 mm | - | 0 W/m² | - |
| 1777976164 | 10.56° C | 92% | 1012.7 hPa | 0 mm | - | 0 W/m² | - |
| 1777974265 | 10.56° C | 93% | 1012.8 hPa | 0 mm | - | 0 W/m² | - |
| 1777973524 | 10.56° C | 92% | 1013.3 hPa | 0 mm | - | 0 W/m² | - |
| 1777971364 | 11.11° C | 92% | 1013.1 hPa | 0 mm | - | 0 W/m² | - |
| 1777970404 | 11.11° C | 92% | 1013.2 hPa | 0 mm | - | 0 W/m² | - |
| 1777970164 | 11.11° C | 92% | 1013.2 hPa | 0 mm | - | 0 W/m² | - |
| 1777968244 | 11.67° C | 92% | 1013.3 hPa | 0 mm | - | 0 W/m² | - |
| 1777967785 | 11.11° C | 92% | 1013.4 hPa | 0 mm | - | 0 W/m² | - |
| 1777966585 | 11.67° C | 92% | 1013.6 hPa | 0 mm | - | 0 W/m² | - |
| 1777965124 | 11.67° C | 91% | 1013.5 hPa | 0 mm | - | 0 W/m² | - |
| 1777964644 | 12.22° C | 92% | 1013.5 hPa | 0 mm | - | 0 W/m² | - |
| 1777964163 | 12.22° C | 92% | 1013.6 hPa | 0 mm | - | 0 W/m² | - |
| 1777961284 | 12.22° C | 92% | 1013.5 hPa | 0 mm | - | 0 W/m² | - |
| 1777961044 | 12.22° C | 91% | 1013.6 hPa | 0 mm | - | 0 W/m² | - |
| 1777960345 | 12.22° C | 91% | 1013.8 hPa | 0 mm | - | 0 W/m² | - |
| 1777959364 | 12.22° C | 91% | 1013.8 hPa | 0 mm | - | 0 W/m² | - |
* Rain latest hour (hover to see other rain measurements)
** Current wind speed in m/s (hover to see current wind gust speed)